This demonstration page uses our WeatherBlox Daily Observations layout. Learn more.

36.17497, -115.13722

Hourly Observations for July 10, 2015

Temp ( °F °C ) Dew Point ( °F °C ) Humidity (%) Winds ( mph kmh ) Pressure ( in mb ) Visibility ( mi km ) Precip ( " mm )
12:53 am 00:53 Clear 79 26.1 37 2.8 22 22 SSE 5 7 29.73 1007 10 16.0934 0 0
1:53 am 01:53 Clear 77 25 41 5 28 28 WSW 6 9 29.74 1007 10 16.0934 0 0
2:53 am 02:53 Clear 77 25 40 4.4 26 26 SW 6 9 29.75 1007 10 16.0934 0 0
3:53 am 03:53 Clear 75 23.9 43 6.1 32 32 S 6 9 29.76 1008 10 16.0934 0 0
4:53 am 04:53 Clear 75 23.9 45 7.2 34 34 S 5 7 29.8 1009 10 16.0934 0 0
5:53 am 05:53 Sunny 74 23.3 45 7.2 36 36 Calm 29.81 1010 10 16.0934 0 0
6:53 am 06:53 Sunny 75 23.9 46 7.8 36 36 SE 3 6 29.83 1010 10 16.0934 0 0
7:53 am 07:53 Sunny 77 25 45 7.2 32 32 SSE 5 7 29.85 1011 10 16.0934 0 0
8:53 am 08:53 Sunny 80 26.7 42 5.6 26 26 S 9 15 29.86 1011 10 16.0934 0 0
9:53 am 09:53 Sunny 84 28.9 41 5 22 22 SSE 9 15 29.85 1011 10 16.0934 0 0
10:53 am 10:53 Sunny 85 29.4 40 4.4 20 20 S 15 24 29.85 1011 10 16.0934 0 0
11:53 am 11:53 Sunny 88 31.1 41 5 19 19 S 15 24 29.83 1010 10 16.0934 0 0
12:53 pm 12:53 Mostly Sunny 88 31.1 41 5 19 19 S 10 17 29.83 1010 10 16.0934 0 0
1:53 pm 13:53 Mostly Sunny 90 32.2 39 3.9 17 17 SSE 15 24 29.8 1009 10 16.0934 0 0
2:53 pm 14:53 Partly Cloudy 92 33.3 40 4.4 16 16 SSE 23 37 29.78 1009 10 16.0934 0 0
3:22 pm 15:22 Partly Cloudy 91 33 39 4 16 16 S 15 24 29.62 1003 10 16.0934 0 0
3:53 pm 15:53 Sunny 92 33.3 38 3.3 15 15 SE 15 24 29.77 1008 10 16.0934 0 0
4:53 pm 16:53 Sunny 91 32.8 39 3.9 16 16 SSE 14 22 29.75 1008 10 16.0934 0 0
5:53 pm 17:53 Sunny 90 32.2 39 3.9 17 17 SE 16 26 29.75 1007 10 16.0934 0 0
6:53 pm 18:53 Sunny 89 31.7 40 4.4 18 18 SSE 22 35 29.75 1008 10 16.0934 0 0
7:53 pm 19:53 Sunny 88 31.1 40 4.4 18 18 S 14 22 29.76 1008 10 16.0934 0 0
8:53 pm 20:53 Clear 86 30 40 4.4 20 20 SSE 13 20 29.78 1009 10 16.0934 0 0
9:53 pm 21:53 Clear 86 30 41 5 20 20 S 13 20 29.8 1009 10 16.0934 0 0
10:53 pm 22:53 Clear 84 28.9 42 5.6 23 23 SW 8 13 29.81 1010 10 16.0934 0 0
11:53 pm 23:53 Clear 83 28.3 40 4.4 22 22 Calm 29.81 1010 10 16.0934 0 0

Powered by AerisWeather